Details From KOAJ - Albert J Ellis
To KPGV - Pitt Greenville
Flight Number -
Tags Decoded
Created
Modified
Stats Distance 50 nm / 93 km
Max Altitude 0 ft / 0 m
Waypoints 2
Social Downloads 1
Likes 0
Share VATSIM

Download

Looking for another format? Having issues loading an existing format? Contact us
Advertisement - Login to hide

Notes

Decoded

Route

KOAJ KPGV

ID Type Via Altitude Latitude Longitude Leg Dist Tot Dist Heading (true) Name
O KOAJ APT - 0 ft / 0 m 34.82219˚ -77.62042˚ - 0 nm - -
O KPGV APT - 0 ft / 0 m 35.63774˚ -77.39386˚ 50 nm 50 nm 13° / 13° Pitt Greenville

Altitude Profile

Advertisement - Login to hide

KOAJ

Details ICAO KOAJ (OAJ)
Name ALBERT J ELLIS
Region United States
Timezone America/New_York (UTC-4.0)
Stats Elevation 94 ft / 29 m (AMSL)
Location 34.829158° -77.612142°
Runways 1
Magnetic Variation 9.726° W

METAR

KOAJ 271756Z AUTO 17010KT 10SM CLR 28/21 A3003 RMK AO2 SLP172 T02780206 10289 20244 56006

Decode

TAF

KOAJ 271732Z 2718/2818 18010G15KT P6SM SCT040 FM272200 18010G15KT P6SM SCT150 FM280400 16005KT P6SM OVC060 FM280600 16005KT 2SM -SHRA OVC050 FM281100 14005KT 2SM +SHRA OVC020 AMD LTD TO CLD VIS AND WIND

Decode

Departure Runways

ID Width Length Bearing (true) Bearing (mag) Surface Threshold Offset Overrun Length
05 150 ft / 46 m 7,103 ft / 2,165 m 44.26° 53.99° Asphalt 0 ft / 0 m 0 ft / 0 m
23 150 ft / 46 m 7,103 ft / 2,165 m 224.27° 234.00° Asphalt 0 ft / 0 m 0 ft / 0 m

KPGV

Details ICAO KPGV (PGV)
Name Pitt Greenville
Region United States
Timezone America/New_York (UTC-4.0)
Stats Elevation 27 ft / 8 m (AMSL)
Location 35.635331° -77.386179°
Runways 3
Magnetic Variation 10.002° W

METAR

KPGV 271825Z AUTO 21010G16KT 10SM SCT037 30/19 A3002 RMK AO2

Decode

TAF

KPGV 271732Z 2718/2818 22010G15KT P6SM SCT040 FM280300 19005KT P6SM SCT100 FM280600 17005KT P6SM OVC060 FM280900 16005KT 6SM -SHRA OVC050 FM281200 17005KT 2SM +SHRA OVC040 AMD LTD TO CLD VIS AND WIND

Decode

Destination Runways

ID Width Length Bearing (true) Bearing (mag) Surface Threshold Offset Overrun Length
02 150 ft / 46 m 6,515 ft / 1,986 m 7.54° 17.54° Asphalt 0 ft / 0 m 0 ft / 0 m
08 150 ft / 46 m 4,991 ft / 1,521 m 66.64° 76.64° Asphalt 0 ft / 0 m 0 ft / 0 m
15 150 ft / 46 m 2,686 ft / 819 m 127.69° 137.69° Asphalt 0 ft / 0 m 0 ft / 0 m
20 150 ft / 46 m 6,515 ft / 1,986 m 187.54° 197.54° Asphalt 350 ft / 107 m 0 ft / 0 m
26 150 ft / 46 m 4,991 ft / 1,521 m 246.65° 256.65° Asphalt 0 ft / 0 m 0 ft / 0 m
33 150 ft / 46 m 2,686 ft / 819 m 307.69° 317.69° Asphalt 0 ft / 0 m 0 ft / 0 m

Approach Navaids

Runway Type Ident Frequency Range Bearing (true) Bearing (mag) Slope Elevation
20 Localiser IPGV 110.70 MHz 18 nm / 33 km 187.54° 197.55° - 0 ft / 0 m (AMSL)
20 Glidescope IPGV 110.70 MHz 10 nm / 19 km 187.54° 197.55° 3.00° 26 ft / 8 m (AMSL)
20 DME IPGV 110.70 MHz 18 nm / 33 km - - - 1,624 ft / 495 m (AMSL)

Popular Alternatives